Location: Unspecified
(40.7945°N, 111.1337°W)
Time: 09:19:47
(UTC-06:00)

Vanguard 1 - Pass Details

Date: 28 June 2019
Orbit: 653 x 3830 km, 34.3° (Epoch: 17 July)

Event Time Altitude Azimuth Distance (km) Brightness Sun altitude
Rises 08:31:44 0° 280° (W) 6,139 13.6 26.7°
Reaches altitude 10° 08:37:20 10° 270° (W) 4,514 13.0 27.8°
Maximum altitude 08:45:38 24° 222° (SW) 2,595 12.0 29.3°
Drops below altitude 10° 08:51:10 10° 171° (S) 2,876 12.6 30.4°
Sets 08:53:50 0° 156° (SSE) 3,539 13.2 30.9°
